Regional Weather Roundup
Issued by NWS

Home | Current Version | Previous Version | Graphics & Text | Print | Product List | Glossary On
Versions: 1 2 3 4 5 6 7 8 9 10 11 12 13 14 15 16 17 18 19 20 21 22 23 24 25 26 27 28 29 30 31 32 33 34 35 36 37 38 39 40 41 42 43 44 45 46 47 48 49 50
000
ASUS43 KLOT 260308
RWRIL

ILLINOIS REGIONAL WEATHER ROUNDUP
NATIONAL WEATHER SERVICE CHICAGO/ROMEOVILLE IL
1000 PM CDT TUE APR 25 2017

NOTE: "FAIR" INDICATES FEW OR NO CLOUDS BELOW 12,000 FEET WITH NO
SIGNIFICANT WEATHER AND/OR OBSTRUCTIONS TO VISIBILITY.

* THESE STATIONS ARE NOT UNDER NWS QUALITY CONTROL. THEY ALSO MAY NOT
  REPORT WEATHER SUCH AS PRECIPITATION OR FOG.

ILZ001-002-007-009-015-016-024-260400-
NORTHWEST ILLINOIS

CITY           SKY/WX    TMP DP  RH WIND       PRES   REMARKS
MOLINE         CLOUDY    70  49  47 SE9       29.46S
STERLING*      PTCLDY    71  50  47 SE7       29.51S
SAVANNA*       MOCLDY    71  47  42 SE10      29.48F
$$

ILZ003-004-008-010-011-017-018-260400-
NORTH CENTRAL ILLINOIS

CITY           SKY/WX    TMP DP  RH WIND       PRES   REMARKS
ROCKFORD       CLOUDY    69  50  50 SE10      29.55R
FREEPORT*      CLOUDY    67  47  47 SE9       29.54S
ROCHELLE*      CLOUDY    66  49  54 S12       29.55S
DE KALB*       CLOUDY    68  52  56 SE12      29.57R
PERU*          CLOUDY    69  50  50 SE14      29.54S
$$

ILZ005-006-012>014-019>023-260400-
NORTHEAST ILLINOIS

CITY           SKY/WX    TMP DP  RH WIND       PRES   REMARKS
CHICAGO-OHARE  CLOUDY    69  52  54 S9        29.57R
CHICAGO-MIDWAY CLOUDY    73  53  49 S6        29.58R
AURORA         CLOUDY    70  52  52 SE12      29.56S
LANSING*       MOCLDY    69  56  63 S10       29.60R
JOLIET*        PTCLDY    72  54  53 S6        29.58R
WAUKEGAN       CLOUDY    58  50  75 SE7       29.58R
DUPAGE AIRPORT CLOUDY    70  53  54 S10       29.56R
KANKAKEE*      CLOUDY    69  52  55 S8        29.59S
WHEELING       CLOUDY    69  53  56 SE7       29.58R
MORRIS*        CLOUDY    70  52  53 S8        29.56R
ROMEOVILLE*    MOCLDY    67  56  65 S12       29.58S
NORTHERLY ISL    N/A     59  51  75 S3          N/A
$$

LMZ740>746-260400-
SOUTHERN LAKE MICHIGAN

STATION/POSITION SKY/WX   TEMP    WIND        PRES    VSBY  WAVE
                          AIR SEA DIR/SP/G                  HT/PER
                          (F)     (DEG/KT/KT) (MB)    (MI)  (FT/S)
SOUTHERN BUOY              49 42   80/ 10/ 10 1002.7          0
HARRISON CRIB              67     140/ 21/ 22   N/A
BURNHAM HARBOR             59      CALM  /  7   N/A
CALUMET HARBOR             73     150/  7/ 11 1001.5R
BURNS HARBOR               71     180/  8/ 14 1003.0R
MICHIGAN CITY              71     120/ 13/ 19   N/A
ST. JOSEPH                 63 50  120/  8/ 12 1002.6          0
$$

ILZ025>027-034>036-040-047-049-050-058-095>099-260400-
WEST-CENTRAL ILLINOIS

CITY           SKY/WX    TMP DP  RH WIND       PRES   REMARKS
QUINCY         CLOUDY    73  49  42 S8        29.46R
GALESBURG*     CLOUDY    71  49  46 SE9       29.48S
MACOMB*        CLOUDY    72  47  41 SE14G20   29.49S
JACKSONVILLE*  CLOUDY    71  48  44 SE12      29.50S
PITTSFIELD*    CLOUDY    73  51  45 S10       29.49R
$$

ILZ028>032-037-038-041>044-048-051>054-059>061-260400-
CENTRAL ILLINOIS

CITY           SKY/WX    TMP DP  RH WIND       PRES   REMARKS
PONTIAC        MOCLDY    71  53  52 S13       29.58R
BLOOMINGTON    MOCLDY    69  54  58 S14       29.57R
DECATUR        CLOUDY    67  56  67 S9        29.58R
PEORIA         CLOUDY    72  49  44 S13       29.52S
LACON*         PTCLDY    69  52  54 S13       29.52S
LINCOLN*       MOCLDY    69  55  62 SE7       29.55S
SPRINGFIELD    MOCLDY    73  50  44 S16       29.53S
TAYLORVILLE    PTCLDY    69  52  55 S9        29.56S
$$

ILZ033-039-045-046-055>057-062-063-260400-
EAST-CENTRAL ILLINOIS

CITY           SKY/WX    TMP DP  RH WIND       PRES   REMARKS
CHAMPAIGN      CLOUDY    69  53  56 S12       29.60R
RANTOUL*       CLOUDY    71  55  57 S9        29.61R
MATTOON        CLOUDY    69  57  65 S10       29.59R
PARIS*         CLOUDY    69  56  62 S9        29.62R
$$

ILZ079-100>102-260400-
SOUTHWEST ILLINOIS

CITY           SKY/WX    TMP DP  RH WIND       PRES   REMARKS
ALTON          CLEAR     70  50  49 SE10      29.55R
BELLEVILLE     MOCLDY    66  53  61 E6        29.54R
CAHOKIA*       CLOUDY    68  50  52 SE6       29.54R
SPARTA*        CLEAR     65  52  62 SE3       29.58R
$$

ILZ064>066-069>071-074>076-080>082-084>086-088>090-092>094-260400-
SOUTH-CENTRAL ILLINOIS

CITY           SKY/WX    TMP DP  RH WIND       PRES   REMARKS
CARBONDALE     CLEAR     67  54  63 S9        29.57R
CAIRO*         CLEAR     69  55  60 S7        29.60R
EFFINGHAM*     CLOUDY    69  58  68 SE5       29.61R
MARION         CLEAR     72  54  53 S10       29.59R
MT. VERNON     MOCLDY    69  56  62 S7        29.60R
CENTRALIA*     MOCLDY    65  56  72 SE5       29.58R
SALEM*         PTCLDY    71  55  56 S5        29.59R
METROPOLIS*    CLEAR     71  56  58 S6        29.61R
$$

ILZ067-068-072-073-078-083-087-091-260400-
SOUTHEAST ILLINOIS

CITY           SKY/WX    TMP DP  RH WIND       PRES   REMARKS
LAWRENCEVILLE  CLOUDY    71  57  61 S13       29.60R
FLORA*         CLOUDY    69  58  68 S7        29.60R
FAIRFIELD*     MOCLDY    70  57  64 S5        29.59R
HARRISBURG*    PTCLDY    69  56  64 S8        29.60R
ROBINSON*      CLOUDY    69  56  63 S14       29.61R
CARMI*         MOCLDY    65  59  79 S7        29.60R
$$

ABBREVIATIONS USED IN REMARKS
   TC - TEMPERATURE IN CELSIUS
  WCI - WIND CHILL INDEX
   HX - HEAT INDEX
  VSB - VISIBILITY
$$




USA.gov is the U.S. government's official web portal to all federal, state and local government web resources and services.